Terminal Aerodrome Forecast
Issued by NWS Cleveland, OH

Home | Current Version | Previous Version | Graphics & Text | Print | Product List | Glossary On
Versions: 1 2 3 4 5 6 7 8 9 10 11 12 13 14
000
FTUS41 KCLE 301139
TAFMFD
TAF
KMFD 301139Z 3012/3112 16008KT P6SM VCSH SCT040 OVC100
      TEMPO 3012/3014 3SM BR
     FM301400 20008KT P6SM SCT050 BKN150
     FM302300 20005KT P6SM FEW150 SCT250
     FM310800 22004KT 4SM BR SKC=

USA.gov is the U.S. government's official web portal to all federal, state and local government web resources and services.